[[{"header":{"parameterUnit":"m.s-1","parameterCategory":1,"la1":30.2991,"la2":30.254,"lo1":-89.0895,"lo2":-89.0444,"dy":0.0017,"dx":0.0017,"nx":28,"ny":28,"refTime":"2023-10-04T21:00:00:Z","depth":0,"parameterNumber":2,"parameterNumberName":"U-component_of_WINDS"},"data":[0,0,0,0,0,0,0,0,0,0,0,0,0,0,0,0,0,0,0,0,0,0,0,0,0,0,0,0,0,0,0,0,0,0,0,0,0,0,0,0,0,0,0,0,0,0,0,0,0,0,0,0,0,0,0,0,0,0,-4.564,-4.5642,0,-4.5841,-4.5843,-4.5845,-4.5914,-4.5914,-4.5913,-4.5912,-4.6108,-4.6114,-4.612,0,0,0,0,0,0,0,0,0,0,0,0,0,-4.5308,-4.5314,-4.5639,-4.5642,-4.5645,-4.584,-4.5843,-4.5846,-4.5915,-4.5914,-4.5913,-4.5912,-4.6106,-4.6113,-4.612,0,0,0,0,0,0,0,0,0,0,0,0,0,-4.5475,-4.5316,-4.5639,-4.5703,-4.571,-4.584,-4.5843,-4.5847,-4.5915,-4.5914,-4.5912,-4.5911,-4.6104,-4.6113,-4.6121,-4.6199,0,0,-4.6149,-4.6153,0,0,0,0,0,0,0,0,-4.5465,-4.5487,-4.5691,-4.5699,-4.5707,-4.5852,-4.5798,-4.5964,-4.5915,-4.5837,-4.5912,-4.5911,-4.6023,-4.6039,-4.6079,-4.6208,-4.6217,-4.6149,-4.6155,-4.6159,-4.6161,0,0,0,0,0,0,0,-4.5453,-4.5478,-4.5719,-4.5694,-4.5704,-4.5719,-4.5741,-4.583,-4.5933,-4.5844,-4.5849,-4.5872,-4.6027,-4.607,-4.6084,-4.622,-4.6149,-4.6157,-4.6163,-4.6166,-4.6427,-4.6428,0,0,0,0,0,0,-4.5432,-4.5468,-4.5712,-4.5725,-4.5581,-4.5726,-4.5751,-4.5806,-4.5933,-4.5951,-4.5873,-4.5875,-4.6055,-4.6073,-4.6091,-4.6192,-4.6159,-4.6167,-4.6172,-4.6425,-4.6427,-4.6429,0,0,0,0,0,0,-4.5425,-4.5454,-4.5704,-4.5598,-4.5632,-4.5733,-4.5794,-4.5811,-4.5853,-4.5956,-4.5973,-4.5898,-4.6055,-4.6078,-4.6173,-4.62,-4.6171,-4.6179,-4.6423,-4.6426,-4.6428,-4.6394,0,0,0,0,0,0,-4.5415,-4.5451,-4.5482,-4.5599,-4.5637,-4.5785,-4.5796,-4.5816,-4.587,-4.5874,-4.5984,-4.6,-4.6056,-4.616,-4.6182,-4.6212,-4.6186,-4.6421,-4.6424,-4.6427,-4.6393,-4.6395,-4.6397,0,0,0,0,0,-4.5403,-4.5462,-4.5484,-4.5513,-4.5679,-4.5786,-4.5808,-4.5873,-4.5871,-4.5904,-4.597,-4.5997,-4.6194,-4.6169,-4.6195,-4.6227,-4.642,-4.6424,-4.6427,-4.6392,-4.6395,-4.6397,0,0,0,0,0,0,-4.5341,-4.5478,-4.5504,-4.5602,-4.5683,-4.5798,-4.584,-4.5873,-4.5953,-4.5953,-4.6028,-4.6052,-4.6142,-4.6194,-4.6164,-4.6311,-4.6308,-4.6317,-4.6273,-4.6276,-4.6278,-4.6263,-4.6193,0,0,0,0,0,-4.534,-4.5418,-4.5532,-4.5608,-4.5648,-4.5737,-4.5786,-4.583,-4.5915,-4.5948,-4.6021,-4.61,-4.6181,-4.6231,-4.631,-4.6402,-4.6427,-4.6437,-4.6439,-4.644,-4.6446,-4.65,-4.6507,-4.6441,-4.6441,-4.644,0,0,-4.5336,-4.5421,-4.5465,-4.5598,-4.5666,-4.5744,-4.5765,-4.5845,-4.5903,-4.596,-4.6055,-4.6112,-4.6205,-4.6299,-4.6344,-4.6346,-4.6471,-4.6444,-4.6444,-4.645,-4.6505,-4.6511,-4.6516,-4.6443,-4.6443,-4.6442,0,0,-4.5369,-4.5441,-4.5514,-4.5583,-4.5687,-4.5747,-4.5764,-4.5876,-4.5917,-4.6015,-4.606,-4.6129,-4.6264,-4.633,-4.6381,-4.6444,-4.6472,-4.6468,-4.6475,-4.6528,-4.6533,-4.6538,-4.6561,-4.6569,-4.6474,-4.6474,-4.6474,0,-4.5351,-4.5472,-4.5546,-4.5626,-4.5684,-4.5743,-4.5817,-4.5879,-4.6001,-4.6039,-4.604,-4.6215,-4.6281,-4.6393,-4.6409,-4.6448,-4.647,-4.6455,-4.6527,-4.6533,-4.6538,-4.6561,-4.657,-4.6473,-4.6473,-4.6473,-4.6473,0,-4.5445,-4.5529,-4.5574,-4.5697,-4.576,-4.5835,-4.5919,-4.5974,-4.6013,-4.6072,-4.6172,-4.6255,-4.6354,-4.6384,-4.6421,-4.6502,-4.65,-4.6513,-4.6511,-4.6542,-4.6565,-4.6574,-4.6471,-4.6471,-4.6472,-4.6472,0,0,-4.5441,-4.5608,-4.5623,-4.5681,-4.5802,-4.5867,-4.5945,-4.6046,-4.6091,-4.6175,-4.6243,-4.6359,-4.6373,-4.6431,-4.6477,-4.6523,-4.6569,-4.6531,-4.6534,-4.6535,-4.6664,-4.6654,-4.6663,-4.659,-4.6592,-4.6593,-4.6657,0,-4.5491,-4.5638,-4.5709,-4.5824,-4.5903,-4.5963,-4.6032,-4.6112,-4.6171,-4.6244,-4.6308,-4.639,-4.6402,-4.6438,-4.6486,-4.6553,-4.6596,-4.655,-4.6652,-4.6655,-4.6626,-4.6675,-4.6663,-4.6718,-4.6666,-4.6668,-4.6669,0,-4.5567,-4.5656,-4.578,-4.5896,-4.5931,-4.5992,-4.6092,-4.6162,-4.6255,-4.6294,-4.6362,-4.6407,-4.6492,-4.6486,-4.6603,-4.657,-4.6617,-4.6657,-4.666,-4.6671,-4.6663,-4.6687,-4.6738,-4.6746,-4.6684,-4.6682,-4.6681,0,-4.5554,-4.5703,-4.5798,-4.5845,-4.5982,-4.6024,-4.6082,-4.6174,-4.6231,-4.6317,-4.6355,-4.6448,-4.6498,-4.6569,-4.6638,-4.6628,-4.6749,-4.6749,-4.6783,-4.6782,-4.6805,-4.6802,-4.6863,-4.6835,-4.6835,-4.6835,-4.6835,0,-4.5601,-4.5675,-4.5795,-4.5853,-4.5938,-4.6018,-4.6098,-4.6161,-4.6243,-4.6314,-4.637,-4.6434,-4.6522,-4.6597,-4.6651,-4.6741,-4.6763,-4.6796,-4.681,-4.6791,-4.6787,-4.6821,-4.6819,-4.6837,-4.6837,-4.6836,-4.6836,0,-4.5599,-4.5683,-4.579,-4.5912,-4.5945,-4.6002,-4.6106,-4.6164,-4.6227,-4.6315,-4.634,-4.6438,-4.6529,-4.6606,-4.6725,-4.6762,-4.6855,-4.6871,-4.6825,-4.6832,-4.6862,-4.6858,-4.6947,-4.6963,-4.6924,-4.6924,-4.6924,0,-4.5624,-4.5684,-4.5814,-4.5867,-4.5926,-4.6009,-4.6069,-4.6151,-4.621,-4.6323,-4.6368,-4.6464,-4.6546,-4.6689,-4.6769,-4.6862,-4.688,-4.6905,-4.6894,-4.6874,-4.6881,-4.6876,-4.6883,-4.6905,-4.6905,-4.6905,-4.6905,0,-4.566,-4.5699,-4.5785,-4.5886,-4.5957,-4.604,-4.6123,-4.6163,-4.6259,-4.6323,-4.642,-4.6484,-4.6609,-4.6704,-4.6805,-4.6863,-4.69,-4.6909,-4.6922,-4.6903,-4.6874,-4.6891,-4.6827,-4.6906,-4.6906,-4.6906,-4.6906,-4.6906,-4.5673,-4.5729,-4.5831,-4.5925,-4.5998,-4.6076,-4.6138,-4.621,-4.6293,-4.6404,-4.6446,-4.6545,-4.6639,-4.678,-4.6839,-4.6916,-4.6921,-4.6939,-4.6944,-4.6947,-4.6945,-4.6863,-4.6935,-4.6935,-4.6935,-4.6935,-4.6935,0,-4.5712,-4.5781,-4.5868,-4.5986,-4.606,-4.6093,-4.6188,-4.6247,-4.6335,-4.6421,-4.6502,-4.6614,-4.6707,-4.6797,-4.6894,-4.6939,-4.6959,-4.6962,-4.6959,-4.6972,-4.6934,-4.6914,-4.6945,-4.6945,-4.6945,-4.6945,-4.6945,-4.6945,-4.5741,-4.5839,-4.5891,-4.6025,-4.6094,-4.6194,-4.6246,-4.6318,-4.6388,-4.6511,-4.6591,-4.665,-4.6738,-4.6843,-4.693,-4.6954,-4.6987,-4.6986,-4.7014,-4.6977,-4.6975,-4.6973,-4.6954,-4.6993,-4.6993,-4.7046,-4.7047,-4.7047]},{"header":{"parameterUnit":"m.s-1","parameterCategory":1,"la1":30.2991,"la2":30.254,"lo1":-89.0895,"lo2":-89.0444,"dy":0.0017,"dx":0.0017,"nx":28,"ny":28,"refTime":"2023-10-04T21:00:00:Z","depth":0,"parameterNumber":3,"parameterNumberName":"V-component_of_WINDS"},"data":[0,0,0,0,0,0,0,0,0,0,0,0,0,0,0,0,0,0,0,0,0,0,0,0,0,0,0,0,0,0,0,0,0,0,0,0,0,0,0,0,0,0,0,0,0,0,0,0,0,0,0,0,0,0,0,0,0,0,4.1775,4.1775,0,4.1768,4.1768,4.1768,4.1766,4.1766,4.1766,4.1766,4.1755,4.1755,4.1755,0,0,0,0,0,0,0,0,0,0,0,0,0,4.1785,4.1785,4.1775,4.1775,4.1775,4.1768,4.1768,4.1768,4.1766,4.1766,4.1766,4.1766,4.1755,4.1755,4.1755,0,0,0,0,0,0,0,0,0,0,0,0,0,4.1779,4.1785,4.1775,4.1773,4.1773,4.1768,4.1768,4.1768,4.1766,4.1766,4.1766,4.1766,4.1756,4.1755,4.1755,4.1751,0,0,4.1753,4.1753,0,0,0,0,0,0,0,0,4.178,4.1779,4.1774,4.1773,4.1773,4.1768,4.1768,4.1762,4.1766,4.1768,4.1766,4.1766,4.1759,4.1759,4.1757,4.175,4.175,4.1753,4.1753,4.1753,4.1753,0,0,0,0,0,0,0,4.178,4.1779,4.1772,4.1774,4.1773,4.1772,4.1771,4.1767,4.1763,4.1768,4.1768,4.1767,4.1759,4.1757,4.1757,4.1749,4.1753,4.1753,4.1752,4.1752,4.174,4.174,0,0,0,0,0,0,4.1781,4.178,4.1773,4.1772,4.1777,4.1772,4.1771,4.177,4.1764,4.1763,4.1767,4.1767,4.1758,4.1757,4.1756,4.1752,4.1753,4.1752,4.1752,4.174,4.174,4.174,0,0,0,0,0,0,4.1781,4.1781,4.1773,4.1776,4.1775,4.1772,4.177,4.1769,4.1768,4.1763,4.1762,4.1766,4.1758,4.1757,4.1752,4.1751,4.1752,4.1752,4.174,4.174,4.174,4.1742,0,0,0,0,0,0,4.1782,4.1781,4.178,4.1776,4.1775,4.177,4.177,4.1769,4.1767,4.1767,4.1762,4.1761,4.1758,4.1753,4.1752,4.1751,4.1751,4.174,4.174,4.174,4.1742,4.1742,4.1742,0,0,0,0,0,4.1782,4.178,4.1779,4.1779,4.1773,4.177,4.1769,4.1767,4.1767,4.1766,4.1763,4.1761,4.1752,4.1753,4.1751,4.175,4.174,4.174,4.174,4.1742,4.1742,4.1742,0,0,0,0,0,0,4.1782,4.1779,4.1779,4.1775,4.1773,4.1769,4.1767,4.1767,4.1763,4.1763,4.176,4.1759,4.1754,4.1752,4.1753,4.1746,4.1746,4.1745,4.1748,4.1748,4.1748,4.1749,4.1751,0,0,0,0,0,4.1781,4.178,4.1777,4.1774,4.1773,4.1771,4.1769,4.1768,4.1765,4.1763,4.176,4.1756,4.1753,4.175,4.1746,4.1742,4.1741,4.174,4.174,4.174,4.174,4.1738,4.1738,4.1739,4.1739,4.1739,0,0,4.178,4.1779,4.1777,4.1774,4.1772,4.177,4.177,4.1767,4.1765,4.1762,4.1758,4.1756,4.1752,4.1748,4.1745,4.1745,4.174,4.174,4.174,4.174,4.1738,4.1738,4.1738,4.1739,4.1739,4.1739,0,0,4.1777,4.1776,4.1774,4.1772,4.177,4.1768,4.1768,4.1765,4.1764,4.176,4.1758,4.1756,4.1749,4.1747,4.1744,4.1742,4.174,4.1741,4.1741,4.1739,4.1739,4.1739,4.1738,4.1738,4.174,4.174,4.174,0,4.1776,4.1773,4.1772,4.177,4.1769,4.1768,4.1766,4.1764,4.176,4.1759,4.1759,4.1752,4.1749,4.1744,4.1744,4.1742,4.1741,4.1741,4.1739,4.1739,4.1739,4.1738,4.1738,4.174,4.174,4.174,4.174,0,4.1772,4.177,4.1768,4.1766,4.1765,4.1762,4.1761,4.1759,4.1759,4.1757,4.1753,4.175,4.1746,4.1745,4.1743,4.1741,4.1741,4.174,4.1739,4.1739,4.1738,4.1738,4.1741,4.1741,4.1741,4.174,0,0,4.1767,4.1766,4.1765,4.1765,4.1763,4.1761,4.1759,4.1756,4.1755,4.1753,4.1751,4.1746,4.1746,4.1743,4.1742,4.174,4.1739,4.174,4.1739,4.174,4.1736,4.1737,4.1736,4.1738,4.1738,4.1738,4.1737,0,4.1764,4.1761,4.1761,4.1758,4.1757,4.1756,4.1754,4.1753,4.1752,4.175,4.1748,4.1745,4.1745,4.1743,4.1742,4.174,4.1738,4.174,4.1736,4.1736,4.1737,4.1736,4.1736,4.1735,4.1736,4.1736,4.1736,0,4.176,4.1759,4.1756,4.1755,4.1755,4.1753,4.1751,4.175,4.1748,4.1747,4.1745,4.1744,4.1741,4.1742,4.1738,4.1739,4.1738,4.1736,4.1736,4.1736,4.1736,4.1735,4.1734,4.1734,4.1736,4.1736,4.1736,0,4.1757,4.1755,4.1753,4.1753,4.1752,4.1751,4.175,4.1749,4.1747,4.1746,4.1745,4.1742,4.1741,4.1739,4.1737,4.1737,4.1734,4.1733,4.1733,4.1733,4.1731,4.1732,4.173,4.1731,4.1731,4.1731,4.1731,0,4.1753,4.1752,4.1752,4.1751,4.175,4.175,4.1748,4.1747,4.1746,4.1744,4.1744,4.1742,4.174,4.1738,4.1737,4.1734,4.1733,4.1732,4.1732,4.1732,4.1733,4.1731,4.1731,4.1731,4.1731,4.1731,4.1731,0,4.175,4.175,4.1749,4.1748,4.1748,4.1747,4.1747,4.1746,4.1745,4.1743,4.1743,4.1741,4.1739,4.1738,4.1734,4.1733,4.1731,4.173,4.1732,4.1732,4.1731,4.1731,4.1729,4.1729,4.1729,4.1729,4.1729,0,4.1747,4.1747,4.1747,4.1746,4.1746,4.1745,4.1745,4.1745,4.1744,4.1743,4.1742,4.174,4.1738,4.1735,4.1733,4.1731,4.173,4.173,4.173,4.1731,4.1731,4.1731,4.1731,4.173,4.173,4.173,4.173,0,4.1743,4.1744,4.1744,4.1744,4.1743,4.1743,4.1742,4.1742,4.1742,4.1741,4.1739,4.1738,4.1736,4.1734,4.1732,4.1731,4.173,4.173,4.173,4.173,4.1731,4.1731,4.1732,4.173,4.173,4.173,4.173,4.173,4.174,4.174,4.1741,4.174,4.174,4.174,4.174,4.174,4.1739,4.1738,4.1738,4.1736,4.1735,4.1733,4.1731,4.173,4.173,4.1729,4.1729,4.1729,4.173,4.1732,4.173,4.173,4.173,4.173,4.173,0,4.1737,4.1737,4.1737,4.1738,4.1737,4.1738,4.1738,4.1738,4.1737,4.1736,4.1736,4.1734,4.1733,4.1732,4.173,4.173,4.1729,4.1729,4.1729,4.1729,4.173,4.173,4.173,4.173,4.173,4.173,4.173,4.173,4.1735,4.1734,4.1735,4.1735,4.1735,4.1735,4.1735,4.1735,4.1735,4.1734,4.1733,4.1733,4.1732,4.1731,4.173,4.1729,4.1729,4.1729,4.1728,4.1729,4.1729,4.1729,4.1729,4.1729,4.1729,4.1728,4.1728,4.1728]}]]